Location: Yellowknife
(62.4500°N, 114.3500°W)
Time: 08:25:19
(UTC-07:00)

Amateur Radio Satellites - All Passes

Search period start: 23 January 2018 07:55
Search period end: 24 January 2018 07:55
Location: Yellowknife, 62.4500°N, 114.3500°W

Satellite Date Start Highest point End Downlink Frequencies (MHz)
Time Altitude Azimuth
HO-68 23 Jan 07:56:48 08:03:56 63° 105° (ESE) 08:11:03 435.675
Oscar 11 23 Jan 08:05:26 08:08:36 19° 86° (E) 08:11:44 .
CUTE 1.7 + AOD 2 23 Jan 08:08:44 08:13:00 87° 111° (ESE) 08:17:13 437.475
XW-2C 23 Jan 08:11:43 08:15:13 36° 300° (WNW) 08:18:41 145.795 - 145.815
LilacSat-2 23 Jan 08:13:01 08:16:30 34° 301° (WNW) 08:19:56 437.200
XW-2A 23 Jan 08:22:54 08:26:04 35° 98° (E) 08:29:11 145.665 - 145.685
EO-79 23 Jan 08:32:40 08:34:00 11° 33° (NNE) 08:35:21 145.935-145.965
STRAND 1 23 Jan 08:32:43 08:36:35 21° 274° (W) 08:40:29 437.568
SO-50 23 Jan 08:34:46 08:39:19 79° 343° (NNW) 08:44:00 436.795
PRISM 23 Jan 08:37:43 08:41:08 26° 52° (NE) 08:44:34 437.425
KAITUO 1B 23 Jan 08:38:59 08:42:13 29° 303° (WNW) 08:45:26 145.475/437.950
AO-7 23 Jan 08:43:36 08:50:37 31° 343° (NNW) 08:57:36 .
NUDT-PHONESAT 23 Jan 08:44:56 08:48:06 27° 304° (NW) 08:51:14 437.300
XW-2F 23 Jan 08:45:41 08:48:41 23° 307° (NW) 08:51:42 145.980 - 146.000
UWE-3 23 Jan 08:48:09 08:52:54 84° 109° (ESE) 08:57:34 435.000/436.395/437.385
CUBEBUG 2 23 Jan 08:48:36 08:53:21 70° 293° (WNW) 08:58:05 437.445
ITAMSAT 1 23 Jan 08:56:03 08:58:12 13° 341° (NNW) 09:00:21 435.822/435.867
XW-2D 23 Jan 08:58:00 09:00:43 19° 310° (NW) 09:03:24 145.860 - 145.880
TIGRISAT 23 Jan 08:59:25 09:03:58 84° 71° (ENE) 09:08:40 435.000
AAUSAT CUBESAT 2 23 Jan 08:59:31 09:03:39 84° 104° (ESE) 09:07:46 437.432
RS-15 23 Jan 09:00:41 09:12:23 54° 125° (SE) 09:23:45 29.354- 29.394
YUBILEINY 23 Jan 09:04:22 09:13:01 57° 61° (ENE) 09:21:34 435.215
O/OREOS (USA 219) 23 Jan 09:05:30 09:10:00 80° 231° (SW) 09:14:29 437.305
ZACube-1 23 Jan 09:05:40 09:10:17 74° 104° (ESE) 09:14:50 437.345
POLYITAN 1 23 Jan 09:06:41 09:09:19 16° 41° (NE) 09:11:57 437.675
CUTE-I 23 Jan 09:08:05 09:12:54 36° 309° (NW) 09:17:43 437.470
DELFI C3 23 Jan 09:10:42 09:13:21 17° 86° (E) 09:15:59 145.870
AO-73 23 Jan 09:10:43 09:15:19 74° 104° (ESE) 09:19:50 145.935
UNISAT 6 23 Jan 09:15:33 09:20:06 73° 255° (WSW) 09:24:47 437.425
FO-29 23 Jan 09:15:36 09:20:39 25° 272° (W) 09:25:18 435.910
XW-2B 23 Jan 09:15:58 09:18:18 16° 314° (NW) 09:20:36 145.730 - 145.750
Max Valier Satellite 23 Jan 09:16:06 09:18:01 13° 84° (E) 09:19:55 145.860
NANOSAT C BR1 23 Jan 09:19:24 09:22:11 17° 43° (NE) 09:24:59 145.865
Oscar 19 23 Jan 09:20:13 09:22:25 13° 21° (NNE) 09:24:38 437.125/150
AIST 2D 23 Jan 09:24:07 09:27:05 26° 57° (ENE) 09:30:03 435.315
SEEDS 23 Jan 09:26:41 09:30:34 38° 301° (WNW) 09:34:25 437.485
Gurwin Techsat 1B 23 Jan 09:28:02 09:30:21 13° 20° (NNE) 09:32:40 435.225
EO-88 23 Jan 09:28:30 09:30:02 12° 83° (E) 09:31:36 145.990 - 145.960
M-CUBED/EXP-1 PRIME 23 Jan 09:28:47 09:29:47 11° 336° (NNW) 09:30:47 437.505
QB50P2 23 Jan 09:35:35 09:38:57 23° 49° (NE) 09:42:20 145.880/145.840
BEESAT 3 23 Jan 09:38:58 09:41:27 16° 121° (ESE) 09:43:58 437.485
Oscar 11 23 Jan 09:41:01 09:45:24 86° 112° (ESE) 09:49:44 .
HO-68 23 Jan 09:44:47 09:51:41 52° 309° (NW) 09:58:34 435.675
CUTE 1.7 + AOD 2 23 Jan 09:45:02 09:48:25 24° 309° (NW) 09:51:47 437.475
XW-2C 23 Jan 09:47:26 09:48:28 11° 321° (NW) 09:49:30 145.795 - 145.815
LilacSat-2 23 Jan 09:49:00 09:49:48 11° 322° (NW) 09:50:36 437.200
XW-2A 23 Jan 09:55:39 09:58:46 35° 299° (WNW) 10:01:52 145.665 - 145.685
PCSat 23 Jan 09:58:10 10:02:39 27° 118° (ESE) 10:07:10 145.827
DUCHIFAT 1 23 Jan 10:00:25 10:03:55 25° 51° (NE) 10:07:27 145.980
EO-79 23 Jan 10:04:54 10:08:39 31° 55° (NE) 10:12:27 145.935-145.965
PRISM 23 Jan 10:12:04 10:16:07 73° 254° (WSW) 10:20:12 437.425
SO-50 23 Jan 10:15:30 10:20:06 69° 7° (N) 10:24:48 436.795
UWE-3 23 Jan 10:24:59 10:28:57 28° 309° (NW) 10:32:53 435.000/436.395/437.385
CUBEBUG 2 23 Jan 10:25:44 10:29:20 22° 314° (NW) 10:32:56 437.445
BEESAT 2 23 Jan 10:33:45 10:36:18 16° 121° (ESE) 10:38:53 435.950
AO-7 23 Jan 10:34:33 10:41:24 29° 10° (N) 10:48:15 .
ITAMSAT 1 23 Jan 10:34:53 10:35:44 10° 5° (N) 10:36:36 435.822/435.867
AAUSAT CUBESAT 2 23 Jan 10:35:25 10:38:44 24° 308° (NW) 10:42:01 437.432
TIGRISAT 23 Jan 10:37:35 10:41:15 23° 272° (W) 10:44:59 435.000
LO-87 23 Jan 10:38:59 10:40:14 11° 82° (E) 10:41:29 145.935 - 145.965
POLYITAN 1 23 Jan 10:40:09 10:44:18 51° 62° (ENE) 10:48:29 437.675
ZACube-1 23 Jan 10:42:17 10:46:16 30° 307° (NW) 10:50:13 437.345
DELFI C3 23 Jan 10:44:45 10:48:42 85° 107° (ESE) 10:52:39 145.870
ESTCUBE 1 23 Jan 10:45:12 10:47:32 14° 81° (E) 10:49:50 437.505/2401.250
O/OREOS (USA 219) 23 Jan 10:45:31 10:48:50 21° 254° (WSW) 10:52:09 437.305
AO-73 23 Jan 10:47:16 10:51:15 30° 307° (NW) 10:55:10 145.935
CUTE-I 23 Jan 10:48:39 10:51:44 16° 332° (NNW) 10:54:49 437.470
Max Valier Satellite 23 Jan 10:48:48 10:52:33 71° 105° (ESE) 10:56:14 145.860
BUGSAT 1 23 Jan 10:50:54 10:54:11 23° 49° (NE) 10:57:30 437.445
NANOSAT C BR1 23 Jan 10:53:00 10:57:10 57° 64° (ENE) 11:01:23 145.865
UNISAT 6 23 Jan 10:54:34 10:57:39 18° 277° (W) 11:00:47 437.425
Oscar 19 23 Jan 10:56:02 11:00:18 26° 44° (NE) 11:04:34 437.125/150
AIST 2D 23 Jan 10:56:36 11:00:03 55° 258° (WSW) 11:03:32 435.315
AO-91 23 Jan 10:58:25 11:00:48 17° 45° (NE) 11:03:19 145.960
EO-88 23 Jan 11:00:47 11:04:25 65° 104° (ESE) 11:08:03 145.990 - 145.960
YUBILEINY 23 Jan 11:01:33 11:10:06 60° 268° (W) 11:18:34 435.215
SEEDS 23 Jan 11:03:30 11:05:16 13° 323° (NW) 11:07:04 437.485
Gurwin Techsat 1B 23 Jan 11:04:29 11:08:48 26° 43° (NE) 11:13:07 435.225
QB50P2 23 Jan 11:10:00 11:14:17 86° 73° (ENE) 11:18:36 145.880/145.840
RS-15 23 Jan 11:11:56 11:24:17 89° 154° (SSE) 11:36:11 29.354- 29.394
BEESAT 3 23 Jan 11:14:23 11:18:17 53° 142° (SE) 11:22:11 437.485
Oscar 11 23 Jan 11:17:35 11:21:08 25° 309° (NW) 11:24:40 .
HO-68 23 Jan 11:32:32 11:38:13 27° 334° (NNW) 11:43:55 435.675
DUCHIFAT 1 23 Jan 11:34:58 11:39:13 82° 250° (WSW) 11:43:31 145.980
EO-79 23 Jan 11:39:59 11:44:13 63° 256° (WSW) 11:48:29 145.935-145.965
PCSat 23 Jan 11:40:02 11:45:27 76° 141° (SE) 11:50:55 145.827
SPROUT 23 Jan 11:43:20 11:45:24 13° 81° (E) 11:47:27 437.525
PRISM 23 Jan 11:49:41 11:52:08 15° 275° (W) 11:54:34 437.425
SO-50 23 Jan 11:56:06 12:00:44 74° 210° (SSW) 12:05:27 436.795
AO-85 23 Jan 12:01:21 12:04:14 18° 120° (ESE) 12:07:16 145.980
UWE-3 23 Jan 12:02:43 12:04:06 11° 331° (NNW) 12:05:29 435.000/436.395/437.385
VELOX 1 23 Jan 12:08:33 12:10:39 13° 81° (E) 12:12:44 145.980
BEESAT 2 23 Jan 12:09:22 12:13:19 54° 142° (SE) 12:17:17 435.950
ITAMSAT 1 23 Jan 12:10:18 12:13:23 16° 29° (NNE) 12:16:29 435.822/435.867
LO-87 23 Jan 12:10:47 12:14:25 60° 103° (ESE) 12:18:01 145.935 - 145.965
POLYITAN 1 23 Jan 12:16:19 12:20:16 35° 264° (W) 12:24:15 437.675
ZACube-1 23 Jan 12:19:45 12:21:19 12° 329° (NNW) 12:22:54 437.345
DELFI C3 23 Jan 12:19:59 12:23:03 22° 309° (NW) 12:26:07 145.870
ESTCUBE 1 23 Jan 12:20:51 12:25:19 58° 102° (ESE) 12:29:45 437.505/2401.250
Max Valier Satellite 23 Jan 12:23:02 12:26:04 24° 306° (NW) 12:29:04 145.860
AO-73 23 Jan 12:24:43 12:26:15 12° 329° (NNW) 12:27:47 145.935
AO-7 23 Jan 12:24:47 12:32:33 44° 37° (NE) 12:40:18 .
BUGSAT 1 23 Jan 12:24:56 12:29:05 88° 73° (ENE) 12:33:20 437.445
CUTE-I 23 Jan 12:28:49 12:29:55 11° 357° (N) 12:31:00 437.470
NANOSAT C BR1 23 Jan 12:29:21 12:33:08 31° 266° (W) 12:36:59 145.865
AO-91 23 Jan 12:33:10 12:36:40 71° 70° (ENE) 12:40:30 145.960
AIST 2D 23 Jan 12:33:35 12:34:01 10° 279° (W) 12:34:28 435.315
Oscar 19 23 Jan 12:33:50 12:39:03 78° 67° (ENE) 12:44:17 437.125/150
EO-88 23 Jan 12:34:47 12:37:47 24° 305° (NW) 12:40:47 145.990 - 145.960
M-CUBED/EXP-1 PRIME 23 Jan 12:35:11 12:35:47 10° 22° (NNE) 12:36:22 437.505
Gurwin Techsat 1B 23 Jan 12:42:50 12:48:08 75° 66° (ENE) 12:53:28 435.225
QB50P2 23 Jan 12:47:23 12:50:39 21° 272° (W) 12:53:56 145.880/145.840
BEESAT 3 23 Jan 12:51:49 12:55:48 70° 344° (NNW) 12:59:47 437.485
YUBILEINY 23 Jan 12:59:00 13:05:11 22° 294° (WNW) 13:11:21 435.215
DUCHIFAT 1 23 Jan 13:12:37 13:15:34 18° 274° (W) 13:18:32 145.980
SPROUT 23 Jan 13:17:57 13:22:13 57° 103° (ESE) 13:26:28 437.525
EO-79 23 Jan 13:18:32 13:20:51 14° 278° (W) 13:23:11 145.935-145.965
HO-68 23 Jan 13:19:05 13:24:00 20° 360° (N) 13:28:55 435.675
PCSat 23 Jan 13:23:46 13:29:09 59° 345° (NNW) 13:34:32 145.827
RS-15 23 Jan 13:25:11 13:37:28 81° 5° (N) 13:49:09 29.354- 29.394
UKube-1 23 Jan 13:33:37 13:35:22 12° 81° (E) 13:37:05 .
SO-50 23 Jan 13:36:47 13:40:44 28° 232° (SW) 13:44:43 436.795
AO-85 23 Jan 13:39:41 13:43:50 58° 143° (SE) 13:48:22 145.980
VELOX 1 23 Jan 13:43:42 13:48:04 56° 103° (ESE) 13:52:24 145.980
LO-87 23 Jan 13:44:31 13:47:35 26° 304° (NW) 13:50:40 145.935 - 145.965
ITAMSAT 1 23 Jan 13:46:58 13:51:42 38° 52° (NE) 13:56:29 435.822/435.867
BEESAT 2 23 Jan 13:46:58 13:51:02 70° 345° (NNW) 13:55:05 435.950
DX 1 23 Jan 13:50:47 13:54:12 22° 90° (E) 13:57:37 434.975-435.025
ESTCUBE 1 23 Jan 13:57:54 14:02:00 35° 304° (NW) 14:06:05 437.505/2401.250
BUGSAT 1 23 Jan 14:01:57 14:05:02 20° 272° (W) 14:08:10 437.445
CUTE-I 23 Jan 14:05:32 14:08:00 13° 21° (NNE) 14:10:29 437.470
M-CUBED/EXP-1 PRIME 23 Jan 14:06:00 14:09:12 24° 43° (NE) 14:12:14 437.505
50 SAT 23 Jan 14:08:57 14:11:26 21° 93° (E) 14:13:55 437.505
AO-91 23 Jan 14:11:03 14:13:42 20° 272° (W) 14:16:31 145.960
Oscar 19 23 Jan 14:14:24 14:18:55 29° 269° (W) 14:23:28 437.125/150
AO-7 23 Jan 14:16:22 14:24:47 89° 54° (NE) 14:33:15 .
DOVE 4 23 Jan 14:17:53 14:20:52 20° 47° (NE) 14:23:53 437.250
Gurwin Techsat 1B 23 Jan 14:23:53 14:28:35 31° 268° (W) 14:33:20 435.225
MOZHAYETS 4 23 Jan 14:27:29 14:30:13 15° 81° (E) 14:32:54
BEESAT 3 23 Jan 14:29:41 14:33:40 63° 9° (N) 14:37:35 437.485
SPROUT 23 Jan 14:54:05 14:57:59 34° 304° (WNW) 15:01:52 437.525
XW-2F 23 Jan 14:58:02 14:58:32 10° 38° (NE) 14:59:03 145.980 - 146.000
BEESAT 23 Jan 15:02:15 15:05:26 17° 84° (E) 15:08:37 436.000
HO-68 23 Jan 15:04:07 15:09:46 26° 26° (NNE) 15:15:26 435.675
PCSat 23 Jan 15:07:52 15:13:14 55° 10° (N) 15:18:36 145.827
UKube-1 23 Jan 15:08:08 15:12:23 53° 102° (ESE) 15:16:36 .
XW-2D 23 Jan 15:09:05 15:10:44 12° 42° (NE) 15:12:23 145.860 - 145.880
AO-85 23 Jan 15:19:55 15:24:17 72° 348° (NNW) 15:29:02 145.980
VELOX 1 23 Jan 15:20:24 15:24:25 35° 304° (NW) 15:28:24 145.980
BEESAT 2 23 Jan 15:25:01 15:29:04 63° 8° (N) 15:33:06 435.950
ITAMSAT 1 23 Jan 15:25:51 15:31:00 66° 254° (WSW) 15:36:13 435.822/435.867
XW-2B 23 Jan 15:26:05 15:28:18 15° 45° (NE) 15:30:31 145.730 - 145.750
DX 1 23 Jan 15:26:34 15:30:56 84° 294° (WNW) 15:35:18 434.975-435.025
ESTCUBE 1 23 Jan 15:35:40 15:37:44 13° 327° (NNW) 15:39:47 437.505/2401.250
RS-15 23 Jan 15:38:17 15:50:19 78° 217° (SW) 16:01:42 29.354- 29.394
M-CUBED/EXP-1 PRIME 23 Jan 15:39:14 15:43:18 88° 231° (SW) 15:47:05 437.505
50 SAT 23 Jan 15:40:19 15:43:22 51° 294° (WNW) 15:46:25 437.505
CUTE-I 23 Jan 15:42:11 15:46:36 27° 45° (NE) 15:51:02 437.470
SEEDS 23 Jan 15:46:15 15:46:51 10° 33° (NNE) 15:47:28 437.485
DOVE 4 23 Jan 15:53:52 15:58:02 75° 68° (ENE) 16:02:12 437.250
XW-2C 23 Jan 15:55:35 15:58:34 22° 52° (NE) 16:01:33 145.795 - 145.815
LilacSat-2 23 Jan 15:57:13 16:00:19 24° 53° (NE) 16:03:25 437.200
ITUPSAT 1 23 Jan 16:01:44 16:06:17 39° 97° (E) 16:10:49 437.325
CUTE 1.7 + AOD 2 23 Jan 16:02:31 16:05:02 16° 42° (NE) 16:07:33 437.475
MOZHAYETS 4 23 Jan 16:03:41 16:08:19 62° 103° (ESE) 16:12:55
BEESAT 3 23 Jan 16:07:21 16:11:19 72° 212° (SSW) 16:15:14 437.485
AO-7 23 Jan 16:10:58 16:18:33 37° 267° (W) 16:26:13 .
CUBESAT XI-V 23 Jan 16:14:55 16:19:04 31° 93° (E) 16:23:11 437.345
KAITUO 1B 23 Jan 16:21:25 16:24:32 25° 55° (NE) 16:27:40 145.475/437.950
NUDT-PHONESAT 23 Jan 16:26:34 16:29:43 26° 56° (NE) 16:32:52 437.300
XW-2F 23 Jan 16:28:15 16:31:41 33° 59° (ENE) 16:35:07 145.980 - 146.000
SPROUT 23 Jan 16:31:08 16:32:48 12° 326° (NW) 16:34:28 437.525
BEESAT 23 Jan 16:39:17 16:44:07 69° 106° (ESE) 16:48:54 436.000
XW-2D 23 Jan 16:40:27 16:44:05 43° 63° (ENE) 16:47:43 145.860 - 145.880
UKube-1 23 Jan 16:44:21 16:48:19 36° 304° (NW) 16:52:16 .
UWE-3 23 Jan 16:44:51 16:47:55 18° 42° (NE) 16:51:01 435.000/436.395/437.385
CUBEBUG 2 23 Jan 16:45:19 16:48:54 23° 47° (NE) 16:52:33 437.445
HO-68 23 Jan 16:49:25 16:56:17 51° 50° (NE) 17:03:09 435.675
PCSat 23 Jan 16:51:34 16:57:03 89° 213° (SSW) 17:02:31 145.827
AAUSAT CUBESAT 2 23 Jan 16:51:43 16:53:51 14° 41° (NE) 16:56:00 437.432
VELOX 1 23 Jan 16:57:50 16:59:48 13° 326° (NNW) 17:01:47 145.980
XW-2B 23 Jan 16:58:02 17:01:48 57° 66° (ENE) 17:05:33 145.730 - 145.750
AO-85 23 Jan 17:00:33 17:05:04 70° 11° (NNE) 17:09:58 145.980
ZACube-1 23 Jan 17:01:51 17:04:37 16° 39° (NE) 17:07:24 437.345
BEESAT 2 23 Jan 17:02:52 17:06:56 72° 210° (SSW) 17:10:56 435.950
DX 1 23 Jan 17:03:14 17:06:40 23° 313° (NW) 17:10:05 434.975-435.025
AO-73 23 Jan 17:06:40 17:09:25 16° 39° (NE) 17:12:09 145.935
ITAMSAT 1 23 Jan 17:08:01 17:11:30 18° 277° (W) 17:14:59 435.822/435.867
KKS-1 23 Jan 17:10:29 17:13:49 20° 88° (E) 17:17:09 437.445
50 SAT 23 Jan 17:13:21 17:14:26 11° 315° (NW) 17:15:30 437.505
M-CUBED/EXP-1 PRIME 23 Jan 17:15:16 17:18:10 19° 262° (W) 17:20:57 437.505
SEEDS 23 Jan 17:17:46 17:21:25 29° 55° (NE) 17:25:02 437.485
STARS 23 Jan 17:18:15 17:20:12 13° 81° (E) 17:22:07 437.465
CUTE-I 23 Jan 17:20:48 17:26:07 81° 67° (ENE) 17:31:29 437.470
XW-2C 23 Jan 17:28:32 17:32:23 83° 253° (WSW) 17:36:13 145.795 - 145.815
LilacSat-2 23 Jan 17:30:25 17:34:17 76° 254° (WSW) 17:38:08 437.200
XW-2A 23 Jan 17:32:38 17:34:47 16° 49° (NE) 17:36:56 145.665 - 145.685
DOVE 4 23 Jan 17:32:55 17:36:15 23° 271° (W) 17:39:35 437.250
CUTE 1.7 + AOD 2 23 Jan 17:35:57 17:40:05 50° 63° (ENE) 17:44:12 437.475
Oscar 11 23 Jan 17:36:16 17:39:00 17° 42° (NE) 17:41:45 .
ITUPSAT 1 23 Jan 17:39:36 17:44:20 54° 299° (WNW) 17:49:01 437.325
MOZHAYETS 4 23 Jan 17:41:06 17:45:19 35° 305° (NW) 17:49:30
BEESAT 3 23 Jan 17:45:12 17:48:21 23° 233° (SW) 17:51:28 437.485
RS-15 23 Jan 17:50:48 18:01:21 40° 246° (WSW) 18:11:26 29.354- 29.394
CUBESAT XI-V 23 Jan 17:52:11 17:56:48 63° 295° (WNW) 18:01:21 437.345
NO-84 23 Jan 17:52:36 17:52:51 10° 152° (SSE) 17:53:06 435.350 FM
KAITUO 1B 23 Jan 17:54:32 17:58:16 65° 255° (WSW) 18:02:01 145.475/437.950
NUDT-PHONESAT 23 Jan 17:59:38 18:03:20 61° 256° (WSW) 18:07:03 437.300
XW-2F 23 Jan 18:02:02 18:05:43 47° 261° (W) 18:09:24 145.980 - 146.000
AO-7 23 Jan 18:11:36 18:14:18 12° 294° (WNW) 18:17:02 .
XW-2D 23 Jan 18:14:49 18:18:22 35° 264° (W) 18:21:54 145.860 - 145.880
BEESAT 23 Jan 18:17:21 18:21:40 34° 308° (NW) 18:25:58 436.000
UWE-3 23 Jan 18:19:06 18:23:33 54° 64° (ENE) 18:28:07 435.000/436.395/437.385
CUBEBUG 2 23 Jan 18:20:23 18:24:55 77° 70° (ENE) 18:29:38 437.445
UKube-1 23 Jan 18:21:21 18:23:21 13° 326° (NW) 18:25:20 .
AAUSAT CUBESAT 2 23 Jan 18:24:32 18:28:28 45° 62° (ENE) 18:32:24 437.432
XW-2B 23 Jan 18:32:57 18:36:15 27° 267° (W) 18:39:32 145.730 - 145.750
DELFI C3 23 Jan 18:33:41 18:35:22 12° 40° (NE) 18:37:04 145.870
PCSat 23 Jan 18:35:12 18:40:03 34° 238° (WSW) 18:44:54 145.827
ZACube-1 23 Jan 18:35:38 18:39:59 47° 61° (ENE) 18:44:25 437.345
HO-68 23 Jan 18:36:52 18:43:59 65° 254° (WSW) 18:51:08 435.675
AO-73 23 Jan 18:40:23 18:44:43 46° 61° (ENE) 18:49:08 145.935
BEESAT 2 23 Jan 18:40:55 18:44:10 23° 233° (SW) 18:47:22 435.950
AO-85 23 Jan 18:40:59 18:45:37 67° 213° (SSW) 18:50:37 145.980
KKS-1 23 Jan 18:46:32 18:51:02 87° 107° (ESE) 18:55:30 437.445
STRAND 1 23 Jan 18:51:14 18:54:42 18° 83° (E) 18:58:09 437.568
SEEDS 23 Jan 18:52:39 18:56:51 67° 256° (WSW) 19:01:03 437.485
STARS 23 Jan 18:53:11 18:57:32 53° 102° (ESE) 19:01:53 437.465
CUTE-I 23 Jan 19:02:13 19:06:46 28° 269° (W) 19:11:22 437.470
XW-2A 23 Jan 19:03:33 19:06:58 75° 70° (ENE) 19:10:24 145.665 - 145.685
XW-2C 23 Jan 19:04:44 19:07:10 16° 274° (W) 19:09:37 145.795 - 145.815
LilacSat-2 23 Jan 19:06:57 19:09:13 15° 275° (W) 19:11:29 437.200
Oscar 11 23 Jan 19:10:08 19:14:22 53° 64° (ENE) 19:18:38 .
CUTE 1.7 + AOD 2 23 Jan 19:12:10 19:16:06 35° 265° (W) 19:20:02 437.475
ITUPSAT 1 23 Jan 19:18:00 19:21:20 19° 321° (NW) 19:24:40 437.325
MOZHAYETS 4 23 Jan 19:19:10 19:21:22 13° 327° (NNW) 19:23:33
NO-84 23 Jan 19:27:06 19:29:10 18° 173° (S) 19:31:13 435.350 FM
CUBESAT XI-V 23 Jan 19:30:09 19:33:29 20° 317° (NW) 19:36:48 437.345
KAITUO 1B 23 Jan 19:31:18 19:33:00 13° 277° (W) 19:34:41 145.475/437.950
NUDT-PHONESAT 23 Jan 19:36:28 19:37:57 12° 278° (W) 19:39:26 437.300
BEESAT 23 Jan 19:55:54 19:58:17 14° 330° (NNW) 20:00:39 436.000
UWE-3 23 Jan 19:55:59 20:00:13 37° 265° (W) 20:04:33 435.000/436.395/437.385
CUBEBUG 2 23 Jan 19:58:16 20:02:04 26° 271° (W) 20:05:58 437.445
AAUSAT CUBESAT 2 23 Jan 20:00:11 20:04:02 37° 263° (W) 20:07:54 437.432
Max Valier Satellite 23 Jan 20:04:16 20:07:35 30° 58° (ENE) 20:10:55 145.860
RS-15 23 Jan 20:05:11 20:09:57 14° 274° (W) 20:14:39 29.354- 29.394
DELFI C3 23 Jan 20:05:34 20:09:16 41° 62° (ENE) 20:12:58 145.870
FO-29 23 Jan 20:10:47 20:15:27 30° 91° (E) 20:20:01 435.910
ZACube-1 23 Jan 20:12:02 20:16:22 42° 263° (W) 20:20:46 437.345
EO-88 23 Jan 20:15:16 20:18:26 28° 57° (ENE) 20:21:37 145.990 - 145.960
AO-73 23 Jan 20:16:42 20:21:02 43° 263° (W) 20:25:27 145.935
ESTCUBE 1 23 Jan 20:20:11 20:22:45 15° 37° (NE) 20:25:19 437.505/2401.250
AO-85 23 Jan 20:21:39 20:25:32 25° 234° (SW) 20:29:38 145.980
KKS-1 23 Jan 20:23:30 20:27:12 26° 311° (NW) 20:30:52 437.445
HO-68 23 Jan 20:27:50 20:33:11 22° 278° (W) 20:38:33 435.675
YUBILEINY 23 Jan 20:29:32 20:33:34 14° 55° (NE) 20:37:36 435.215
STARS 23 Jan 20:29:44 20:33:48 37° 304° (WNW) 20:37:53 437.465
STRAND 1 23 Jan 20:29:44 20:34:53 66° 105° (ESE) 20:40:01 437.568
SEEDS 23 Jan 20:30:58 20:33:22 15° 277° (W) 20:35:45 437.485
XW-2A 23 Jan 20:37:40 20:40:05 18° 271° (W) 20:42:30 145.665 - 145.685
TIGRISAT 23 Jan 20:41:41 20:42:55 11° 76° (ENE) 20:44:08 435.000
Oscar 11 23 Jan 20:46:44 20:50:44 34° 265° (W) 20:54:45 .
UNISAT 6 23 Jan 20:56:51 20:59:31 15° 80° (E) 21:02:12 437.425
NO-84 23 Jan 21:03:42 21:05:37 16° 193° (SSW) 21:07:31 435.350 FM
SPROUT 23 Jan 21:13:06 21:15:04 13° 36° (NE) 21:17:02 437.525
LO-87 23 Jan 21:24:02 21:27:02 25° 56° (NE) 21:30:04 145.935 - 145.965
Max Valier Satellite 23 Jan 21:37:36 21:41:17 51° 259° (W) 21:44:58 145.860
DELFI C3 23 Jan 21:40:24 21:44:04 38° 263° (W) 21:47:45 145.870
VELOX 1 23 Jan 21:41:27 21:43:50 15° 37° (NE) 21:46:13 145.980
EO-88 23 Jan 21:48:18 21:51:54 54° 258° (WSW) 21:55:32 145.990 - 145.960
ZACube-1 23 Jan 21:53:15 21:53:53 10° 285° (WNW) 21:54:32 437.345
ESTCUBE 1 23 Jan 21:54:21 21:58:38 43° 60° (ENE) 22:02:55 437.505/2401.250
FO-29 23 Jan 21:55:51 22:01:10 71° 295° (WNW) 22:06:20 435.910
AO-73 23 Jan 21:57:46 21:58:31 10° 285° (WNW) 21:59:15 145.935
KKS-1 23 Jan 22:01:34 22:02:29 11° 333° (NNW) 22:03:24 437.445
STARS 23 Jan 22:06:59 22:09:08 14° 326° (NW) 22:11:18 437.465
STRAND 1 23 Jan 22:09:12 22:13:54 37° 307° (NW) 22:18:36 437.568
TIGRISAT 23 Jan 22:16:18 22:20:50 44° 98° (E) 22:25:21 435.000
YUBILEINY 23 Jan 22:19:56 22:27:51 40° 81° (E) 22:35:46 435.215
nSIGHT-1 23 Jan 22:24:16 22:25:27 12° 171° (S) 22:26:37 .
UNISAT 6 23 Jan 22:32:32 22:37:13 59° 102° (ESE) 22:41:53 437.425
SPROUT 23 Jan 22:46:01 22:49:58 37° 58° (ENE) 22:53:57 437.525
ISS 23 Jan 22:50:59 22:52:28 13° 173° (S) 22:53:58 437.550
LO-87 23 Jan 22:56:38 23:00:12 61° 257° (WSW) 23:03:49 145.935 - 145.965
UKube-1 23 Jan 23:03:58 23:06:11 14° 36° (NE) 23:08:23 .
BEESAT 23 Jan 23:09:47 23:10:06 10° 18° (NNE) 23:10:24 436.000
50 SAT 23 Jan 23:14:30 23:14:48 10° 43° (NE) 23:15:06 437.505
EO-79 23 Jan 23:14:44 23:16:36 13° 80° (E) 23:18:29 145.935-145.965
VELOX 1 23 Jan 23:15:14 23:19:22 42° 59° (ENE) 23:23:31 145.980
Max Valier Satellite 23 Jan 23:15:41 23:15:59 10° 280° (W) 23:16:18 145.860
PRISM 23 Jan 23:17:23 23:21:16 40° 99° (E) 23:25:07 437.425
DX 1 23 Jan 23:21:46 23:24:59 21° 45° (NE) 23:28:13 434.975-435.025
EO-88 23 Jan 23:25:38 23:26:23 10° 279° (W) 23:27:08 145.990 - 145.960
ESTCUBE 1 23 Jan 23:31:08 23:35:29 45° 261° (W) 23:39:51 437.505/2401.250
O/OREOS (USA 219) 23 Jan 23:31:27 23:33:16 12° 98° (E) 23:35:05 437.305
FO-29 23 Jan 23:41:26 23:45:37 24° 319° (NW) 23:49:40 435.910
AIST 2D 23 Jan 23:43:29 23:46:48 39° 98° (E) 23:50:05 435.315
STRAND 1 23 Jan 23:48:58 23:51:56 16° 330° (NNW) 23:54:54 437.568
POLYITAN 1 23 Jan 23:49:45 23:53:07 22° 89° (E) 23:56:28 437.675
TIGRISAT 23 Jan 23:53:05 23:57:37 47° 299° (WNW) 00:02:08 435.000
nSIGHT-1 23 Jan 23:59:33 00:00:37 11° 191° (S) 00:01:42 .
NANOSAT C BR1 24 Jan 00:01:58 00:05:29 24° 90° (E) 00:08:58 145.865
MOZHAYETS 4 24 Jan 00:04:30 00:07:23 16° 38° (NE) 00:10:15
ITUPSAT 1 24 Jan 00:06:49 00:09:31 15° 32° (NNE) 00:12:14 437.325
UNISAT 6 24 Jan 00:09:29 00:13:48 37° 304° (WNW) 00:18:07 437.425
YUBILEINY 24 Jan 00:15:14 00:24:05 82° 288° (WNW) 00:32:56 435.215
CUBESAT XI-V 24 Jan 00:18:50 00:20:11 11° 28° (NNE) 00:21:31 437.345
QB50P2 24 Jan 00:19:32 00:23:32 36° 96° (E) 00:27:32 145.880/145.840
SPROUT 24 Jan 00:21:39 00:25:48 49° 259° (W) 00:30:01 437.525
ISS 24 Jan 00:26:45 00:27:57 12° 193° (SSW) 00:29:09 437.550
LO-87 24 Jan 00:33:04 00:34:22 12° 278° (W) 00:35:40 145.935 - 145.965
Oscar 19 24 Jan 00:35:26 00:37:52 13° 78° (ENE) 00:40:17 437.125/150
UKube-1 24 Jan 00:37:14 00:41:16 40° 58° (ENE) 00:45:18 .
BEESAT 24 Jan 00:42:50 00:46:21 21° 41° (NE) 00:49:53 436.000
50 SAT 24 Jan 00:42:50 00:45:47 43° 64° (ENE) 00:48:46 437.505
DUCHIFAT 1 24 Jan 00:43:24 00:47:29 41° 98° (E) 00:51:32 145.980
Gurwin Techsat 1B 24 Jan 00:48:52 00:51:33 14° 78° (ENE) 00:54:12 435.225
EO-79 24 Jan 00:49:05 00:53:20 55° 102° (ESE) 00:57:34 145.935-145.965
VELOX 1 24 Jan 00:51:38 00:55:50 45° 260° (W) 01:00:06 145.980
PRISM 24 Jan 00:52:43 00:56:36 42° 300° (WNW) 01:00:28 437.425
DX 1 24 Jan 00:56:17 01:00:36 72° 67° (ENE) 01:04:57 434.975-435.025
O/OREOS (USA 219) 24 Jan 01:07:22 01:11:42 49° 120° (ESE) 01:16:03 437.305
ESTCUBE 1 24 Jan 01:12:20 01:13:28 11° 283° (WNW) 01:14:36 437.505/2401.250
AIST 2D 24 Jan 01:16:46 01:19:57 33° 299° (WNW) 01:23:07 435.315
POLYITAN 1 24 Jan 01:25:06 01:29:27 84° 290° (WNW) 01:33:45 437.675
FO-29 24 Jan 01:26:58 01:29:04 12° 345° (NNW) 01:31:07 435.910
TIGRISAT 24 Jan 01:30:28 01:33:24 17° 321° (NW) 01:36:20 435.000
BUGSAT 1 24 Jan 01:30:54 01:34:50 34° 96° (E) 01:38:44 437.445
NANOSAT C BR1 24 Jan 01:37:21 01:41:38 75° 293° (WNW) 01:45:55 145.865
MOZHAYETS 4 24 Jan 01:39:11 01:43:38 47° 61° (ENE) 01:48:07
ITUPSAT 1 24 Jan 01:41:51 01:46:17 38° 55° (NE) 01:50:45 437.325
AO-91 24 Jan 01:47:03 01:51:06 37° 97° (E) 01:55:33 145.960
UNISAT 6 24 Jan 01:47:03 01:49:25 14° 326° (NW) 01:51:49 437.425
CUBESAT XI-V 24 Jan 01:52:21 01:56:16 27° 50° (NE) 02:00:11 437.345
QB50P2 24 Jan 01:55:19 01:59:29 49° 298° (WNW) 02:03:38 145.880/145.840
SPROUT 24 Jan 02:01:25 02:02:46 11° 281° (W) 02:04:07 437.525
AO-7 24 Jan 02:06:17 02:11:05 16° 73° (ENE) 02:15:52 .
UKube-1 24 Jan 02:13:07 02:17:17 47° 259° (W) 02:21:28 .
Oscar 19 24 Jan 02:13:25 02:18:29 49° 100° (E) 02:23:30 437.125/150
YUBILEINY 24 Jan 02:14:19 02:22:18 36° 315° (NW) 02:30:16 435.215
50 SAT 24 Jan 02:15:01 02:17:38 24° 265° (W) 02:20:16 437.505
BEESAT 24 Jan 02:18:41 02:23:25 62° 64° (ENE) 02:28:10 436.000
DUCHIFAT 1 24 Jan 02:19:08 02:23:13 44° 299° (WNW) 02:27:16 145.980
EO-79 24 Jan 02:25:04 02:28:59 35° 303° (WNW) 02:32:53 145.935-145.965
Gurwin Techsat 1B 24 Jan 02:27:35 02:32:48 50° 100° (E) 02:37:58 435.225
PRISM 24 Jan 02:28:58 02:31:00 14° 322° (NW) 02:33:03 437.425
VELOX 1 24 Jan 02:32:42 02:33:27 10° 282° (WNW) 02:34:12 145.980
DX 1 24 Jan 02:33:36 02:37:14 25° 268° (W) 02:40:52 434.975-435.025
KKS-1 24 Jan 02:43:46 02:47:00 20° 44° (NE) 02:50:13 437.445
O/OREOS (USA 219) 24 Jan 02:46:49 02:51:12 50° 323° (NW) 02:55:36 437.305
STARS 24 Jan 02:50:31 02:52:54 14° 36° (NE) 02:55:16 437.465
POLYITAN 1 24 Jan 03:01:22 03:04:45 23° 311° (NW) 03:08:07 437.675
STRAND 1 24 Jan 03:04:48 03:06:30 12° 18° (NNE) 03:08:13 437.568
BUGSAT 1 24 Jan 03:06:13 03:10:22 52° 297° (WNW) 03:14:30 437.445
FO-29 24 Jan 03:10:11 03:12:05 12° 12° (NNE) 03:13:57 435.910
NANOSAT C BR1 24 Jan 03:13:36 03:16:48 21° 313° (NW) 03:20:00 145.865
MOZHAYETS 4 24 Jan 03:16:27 03:20:53 43° 262° (W) 03:25:22
ITUPSAT 1 24 Jan 03:19:16 03:24:01 58° 257° (WSW) 03:28:48 437.325
AO-91 24 Jan 03:23:34 03:27:43 51° 296° (WNW) 03:32:19 145.960
ITAMSAT 1 24 Jan 03:27:41 03:31:38 21° 86° (E) 03:35:34 435.822/435.867
CUBESAT XI-V 24 Jan 03:28:33 03:33:15 85° 252° (WSW) 03:37:57 437.345
QB50P2 24 Jan 03:31:53 03:34:28 16° 319° (NW) 03:37:02 145.880/145.840
Oscar 19 24 Jan 03:52:54 03:57:53 48° 302° (WNW) 04:02:50 437.125/150
UKube-1 24 Jan 03:53:25 03:54:24 11° 281° (W) 03:55:23 .
DUCHIFAT 1 24 Jan 03:55:41 03:57:59 14° 321° (NW) 04:00:17 145.980
BEESAT 24 Jan 03:57:11 04:01:31 33° 265° (W) 04:05:53 436.000
AO-7 24 Jan 03:58:16 04:06:19 47° 99° (E) 04:14:17 .
EO-79 24 Jan 04:01:57 04:03:43 12° 325° (NW) 04:05:28 145.935-145.965
Gurwin Techsat 1B 24 Jan 04:07:42 04:12:50 48° 302° (WNW) 04:17:55 435.225
YUBILEINY 24 Jan 04:15:53 04:22:21 22° 347° (NNW) 04:28:48 435.215
KKS-1 24 Jan 04:18:31 04:22:55 66° 65° (ENE) 04:27:21 437.445
STARS 24 Jan 04:24:11 04:28:17 41° 58° (ENE) 04:32:26 437.465
O/OREOS (USA 219) 24 Jan 04:27:40 04:31:31 27° 347° (NNW) 04:35:21 437.305
STRAND 1 24 Jan 04:40:11 04:44:10 23° 42° (NE) 04:48:08 437.568
BUGSAT 1 24 Jan 04:42:20 04:44:57 16° 318° (NW) 04:47:34 437.445
FO-29 24 Jan 04:51:12 04:55:27 21° 37° (NE) 04:59:26 435.910
MOZHAYETS 4 24 Jan 04:58:24 04:59:18 10° 284° (WNW) 05:00:14
ITUPSAT 1 24 Jan 05:00:13 05:02:53 15° 279° (W) 05:05:36 437.325
AO-91 24 Jan 05:00:54 05:03:30 16° 316° (NW) 05:06:16 145.960
ITAMSAT 1 24 Jan 05:06:42 05:11:57 78° 109° (ESE) 05:17:10 435.822/435.867
CUBESAT XI-V 24 Jan 05:07:47 05:11:19 21° 274° (W) 05:14:51 437.345
DOVE 4 24 Jan 05:18:24 05:22:31 43° 99° (E) 05:26:50 437.250
XW-2F 24 Jan 05:24:27 05:25:34 11° 81° (E) 05:26:40 145.980 - 146.000
CUTE-I 24 Jan 05:27:23 05:30:26 15° 80° (E) 05:33:29 437.470
Oscar 19 24 Jan 05:32:44 05:36:15 19° 325° (NW) 05:39:45 437.125/150
XW-2D 24 Jan 05:36:36 05:38:51 15° 85° (E) 05:41:04 145.860 - 145.880
SO-50 24 Jan 05:40:27 05:44:09 26° 127° (SE) 05:47:56 436.795
Gurwin Techsat 1B 24 Jan 05:48:08 05:51:48 19° 325° (NW) 05:55:28 435.225
AO-7 24 Jan 05:51:19 05:59:42 75° 304° (WNW) 06:08:02 .
HO-68 24 Jan 05:52:46 05:57:23 18° 77° (ENE) 06:01:58 435.675
XW-2B 24 Jan 05:54:01 05:56:49 19° 89° (E) 05:59:36 145.730 - 145.750
KKS-1 24 Jan 05:56:01 05:59:51 28° 267° (W) 06:03:44 437.445
STARS 24 Jan 06:00:26 06:04:39 46° 260° (W) 06:08:55 437.465
CUBEBUG 2 24 Jan 06:02:09 06:03:06 11° 75° (ENE) 06:04:03 437.445
O/OREOS (USA 219) 24 Jan 06:08:20 06:12:11 26° 13° (NNE) 06:15:59 437.305
M-CUBED/EXP-1 PRIME 24 Jan 06:15:40 06:19:02 49° 110° (ESE) 06:22:15 437.505
TIGRISAT 24 Jan 06:15:58 06:17:58 13° 31° (NNE) 06:19:59 435.000
YUBILEINY 24 Jan 06:16:25 06:23:06 23° 20° (NNE) 06:29:47 435.215
STRAND 1 24 Jan 06:17:35 06:22:39 68° 65° (ENE) 06:27:47 437.568
RS-15 24 Jan 06:20:19 06:27:26 18° 92° (E) 06:34:26 29.354- 29.394
XW-2C 24 Jan 06:24:17 06:27:45 33° 96° (E) 06:31:10 145.795 - 145.815
SEEDS 24 Jan 06:26:37 06:28:18 12° 80° (E) 06:29:59 437.485
LilacSat-2 24 Jan 06:26:55 06:30:29 36° 97° (E) 06:34:00 437.200
UNISAT 6 24 Jan 06:31:26 06:34:02 15° 36° (NE) 06:36:41 437.425
FO-29 24 Jan 06:33:46 06:39:43 54° 60° (ENE) 06:45:05 435.910
CUTE 1.7 + AOD 2 24 Jan 06:45:36 06:49:00 23° 89° (E) 06:52:22 437.475
ITAMSAT 1 24 Jan 06:46:29 06:51:06 33° 311° (NW) 06:55:44 435.822/435.867
KAITUO 1B 24 Jan 06:48:26 06:51:57 39° 98° (E) 06:55:26 145.475/437.950
NUDT-PHONESAT 24 Jan 06:52:21 06:55:52 40° 98° (E) 06:59:21 437.300
DOVE 4 24 Jan 06:56:15 07:00:17 42° 299° (WNW) 07:04:31 437.250
XW-2F 24 Jan 06:56:48 07:00:32 56° 102° (ESE) 07:04:12 145.980 - 146.000
CUTE-I 24 Jan 07:06:27 07:11:42 55° 102° (ESE) 07:16:57 437.470
XW-2D 24 Jan 07:09:53 07:13:41 78° 106° (ESE) 07:17:26 145.860 - 145.880
PRISM 24 Jan 07:11:23 07:11:35 10° 31° (NNE) 07:11:48 437.425
Oscar 19 24 Jan 07:12:46 07:13:51 11° 349° (N) 07:14:57 437.125/150
SO-50 24 Jan 07:19:34 07:24:05 72° 149° (SSE) 07:28:42 436.795
XW-2B 24 Jan 07:27:41 07:31:29 79° 290° (WNW) 07:35:14 145.730 - 145.750
Gurwin Techsat 1B 24 Jan 07:28:31 07:30:01 11° 349° (N) 07:31:31 435.225
AAUSAT CUBESAT 2 24 Jan 07:31:01 07:34:03 19° 87° (E) 07:37:05 437.432
UWE-3 24 Jan 07:33:54 07:37:59 28° 90° (E) 07:42:01 435.000/436.395/437.385
CUBEBUG 2 24 Jan 07:36:27 07:41:00 42° 97° (E) 07:45:31 437.445
HO-68 24 Jan 07:39:52 07:46:53 54° 101° (ESE) 07:53:53 435.675
STARS 24 Jan 07:41:04 07:42:08 11° 282° (WNW) 07:43:11 437.465
XW-2A 24 Jan 07:47:17 07:49:43 18° 90° (E) 07:52:07 145.665 - 145.685
